CDT,Max TemperatureF,Mean TemperatureF,Min TemperatureF,Max Dew PointF,MeanDew PointF,Min DewpointF,Max Humidity, Mean Humidity, Min Humidity, Max Sea Level PressureIn, Mean Sea Level PressureIn, Min Sea Level PressureIn, Max VisibilityMiles, Mean VisibilityMiles, Min VisibilityMiles, Max Wind SpeedMPH, Mean Wind SpeedMPH, Max Gust SpeedMPH,PrecipitationIn, CloudCover, Events, WindDirDegrees
2013-9-1,93,84,75,73,67,63,84,61,43,29.91,29.84,29.77,10,8,6,13,5,22,0.00,1,,60
2013-9-2,91,80,71,72,62,56,91,59,31,30.04,29.97,29.92,10,9,4,9,4,,0.00,1,Rain,51
2013-9-3,91,76,61,64,59,55,90,59,29,30.08,30.02,29.97,10,9,6,8,2,,0.00,0,,75
2013-9-4,93,78,63,67,62,57,84,57,36,30.11,30.05,30.02,10,10,8,8,5,,0.00,0,,118
2013-9-5,95,83,71,67,64,61,75,56,36,30.14,30.08,30.03,10,8,6,9,5,17,0.00,0,,135
2013-9-6,98,86,75,68,63,59,64,50,32,30.08,30.02,29.96,10,8,7,9,7,,0.00,0,,150
2013-9-7,100,87,75,67,64,60,64,49,28,29.99,29.95,29.89,9,8,7,10,8,,0.00,0,,159
2013-9-8,98,84,72,66,63,60,76,50,30,29.95,29.91,29.86,10,8,6,14,7,20,0.00,0,,176
2013-9-9,95,82,72,65,61,59,71,49,32,29.96,29.92,29.88,10,9,7,16,8,25,0.00,0,,173
2013-9-10,93,83,73,65,62,58,68,50,31,30.07,30.02,29.94,10,10,9,16,8,22,0.00,0,,169
2013-9-11,95,82,70,65,61,57,65,49,33,30.13,30.07,30.01,10,9,8,14,7,17,0.00,0,,163
2013-9-12,96,83,73,68,65,63,76,58,37,30.09,30.04,29.98,10,7,5,14,4,24,0.00,1,Thunderstorm,107
2013-9-13,84,76,69,68,61,52,84,62,43,30.07,30.01,29.94,10,9,3,13,6,,0.03,3,Rain,67
2013-9-14,84,74,66,62,57,52,66,55,45,30.01,29.97,29.91,10,9,8,14,7,18,0.00,1,,131
2013-9-15,93,80,70,67,61,55,68,53,37,30.00,29.96,29.93,10,9,7,14,8,,0.00,0,,171
2013-9-16,89,78,69,70,68,63,94,79,51,30.19,30.09,29.99,8,5,0,16,6,34,1.75,5,Rain-Thunderstorm,94
2013-9-17,88,79,71,70,68,65,94,80,53,30.11,30.03,29.93,9,6,2,13,4,,0.08,3,Rain-Thunderstorm,137
2013-9-18,93,82,72,71,67,61,84,64,35,29.96,29.90,29.83,10,8,6,16,9,25,0.00,0,,172
2013-9-19,89,80,71,69,66,64,84,65,51,29.96,29.89,29.85,10,9,7,17,10,25,0.00,1,Rain,198
2013-9-20,72,64,57,67,60,51,93,79,48,30.05,29.99,29.91,10,9,6,12,5,21,0.07,5,Rain,21
2013-9-21,82,67,52,58,51,48,93,64,29,30.06,29.99,29.92,10,9,6,8,2,,0.00,0,,110
2013-9-22,82,70,57,52,50,46,83,53,30,29.96,29.88,29.81,10,10,10,12,6,17,0.00,0,,141
2013-9-23,82,70,57,54,52,49,77,54,35,29.89,29.81,29.73,10,10,10,15,10,24,0.00,1,,159
2013-9-24,87,74,61,54,50,41,75,50,21,29.96,29.90,29.86,10,10,9,14,6,24,0.00,0,,289
2013-9-25,88,70,53,59,54,50,90,59,30,29.92,29.84,29.75,10,10,7,12,2,20,0.00,0,,152
2013-9-26,93,80,68,60,56,51,57,44,31,29.82,29.78,29.74,10,10,10,18,12,26,0.00,0,,163
2013-9-27,90,78,66,67,61,55,73,55,38,29.89,29.83,29.78,10,10,8,20,10,26,0.00,0,,163
2013-9-28,80,68,53,70,59,49,94,79,44,30.13,29.96,29.77,10,6,0,18,11,31,1.95,5,Fog-Rain-Thunderstorm,320
2013-9-29,78,63,48,54,49,45,93,66,32,30.12,30.04,29.94,10,9,4,7,1,,0.01,0,,154
2013-9-30,84,67,52,55,51,48,89,57,33,29.92,29.86,29.79,10,10,9,10,6,,0.00,0,,153